Location: Casilda
(33.0440°S, 61.1680°W)
Time: 09:48:16
(UTC-03:00)

ISS - Pass Details

Date: 08 August 2022
Orbit: 412 x 420 km, 51.6° (Epoch: 13 August)

Event Time Altitude Azimuth Distance (km) Brightness Sun altitude
Exits shadow 06:32:40 20° 200° (SSW) 1,055 -2.0 -16.4°
Maximum altitude 06:34:38 40° 140° (SE) 649 -2.6 -16.0°
Drops below altitude 10° 06:37:51 10° 69° (ENE) 1,509 0.4 -15.4°
Sets 06:40:01 0° 61° (ENE) 2,365 1.5 -14.9°
